This is the latest recevied weather packets stored in our database for station/object K3FAZ. If no packets are shown the sender has not sent any weather packets the latest 10 day(s).
| Time | Temp. | Humidity | Pressure | Rain* | Wind** | Luminosity | Snow |
|---|---|---|---|---|---|---|---|
| 1777681379 | 5.56° C | 96% | 1015.2 hPa | 0 mm | - | 1 W/m² | - |
| 1777681076 | 5.56° C | 96% | 1014.9 hPa | 0 mm | - | 1 W/m² | - |
| 1777680774 | 5.56° C | 95% | 1014.6 hPa | 1.78 mm | - | 2 W/m² | - |
| 1777680472 | 5.56° C | 95% | 1014.5 hPa | 3.56 mm | - | 3 W/m² | - |
| 1777680170 | 5.56° C | 95% | 1014.5 hPa | 4.83 mm | - | 4 W/m² | - |
| 1777679870 | 6.11° C | 95% | 1015 hPa | 4.32 mm | - | 2 W/m² | - |
| 1777679566 | 6.11° C | 95% | 1014.9 hPa | 3.05 mm | - | 3 W/m² | - |
| 1777679262 | 6.11° C | 95% | 1014.6 hPa | 7.87 mm | - | 4 W/m² | - |
| 1777678959 | 6.67° C | 95% | 1014.5 hPa | 8.89 mm | - | 3 W/m² | - |
| 1777678658 | 7.78° C | 95% | 1014 hPa | 4.32 mm | - | 2 W/m² | - |
| 1777678355 | 7.78° C | 95% | 1014.1 hPa | 4.83 mm | - | 4 W/m² | - |
| 1777678050 | 7.78° C | 95% | 1014 hPa | 3.56 mm | - | 5 W/m² | - |
| 1777677748 | 7.78° C | 95% | 1014 hPa | 0 mm | - | 6 W/m² | - |
| 1777677445 | 7.78° C | 95% | 1013.9 hPa | 0 mm | - | 12 W/m² | - |
| 1777677143 | 7.78° C | 95% | 1014 hPa | 0 mm | - | 19 W/m² | - |
| 1777676841 | 7.78° C | 95% | 1014 hPa | 0 mm | - | 15 W/m² | - |
| 1777676540 | 7.78° C | 95% | 1014 hPa | 0 mm | - | 15 W/m² | - |
| 1777676237 | 7.78° C | 95% | 1014.2 hPa | 0 mm | - | 19 W/m² | - |
| 1777675934 | 7.78° C | 94% | 1014.2 hPa | 0 mm | - | 14 W/m² | - |
| 1777675630 | 7.78° C | 94% | 1014.2 hPa | 0 mm | - | 28 W/m² | - |
| 1777675328 | 7.78° C | 94% | 1014.3 hPa | 0 mm | - | 22 W/m² | - |
| 1777675024 | 7.78° C | 93% | 1014.2 hPa | 0 mm | - | 17 W/m² | - |
| 1777674720 | 7.78° C | 93% | 1014.1 hPa | 0 mm | - | 18 W/m² | - |
| 1777674417 | 7.78° C | 93% | 1014.2 hPa | 0 mm | - | 29 W/m² | - |
| 1777674114 | 7.78° C | 93% | 1014.3 hPa | 0 mm | - | 39 W/m² | - |
* Rain latest hour (hover to see other rain measurements)
** Current wind speed in m/s (hover to see current wind gust speed)